Orbital elements:
2004 HO79
Epoch 2011 Aug. 27.0 TT = JDT 2455800.5 MPC
M 30.17057 (2000.0) P Q
n 0.00242008 Peri. 119.63529 -0.98976282 -0.11881540
a 54.9434460 Node 53.65197 +0.07101948 -0.89058348
e 0.4093278 Incl. 5.63403 +0.12379740 -0.43902615
P 407 H 7.3 G 0.15 U 2